This demonstration page uses our WeatherBlox Daily Observations layout. Learn more.

Left ArrowRight Arrow

Hourly Observations for February 19, 2023

Temp ( °F °C ) Dew Point ( °F °C ) Humidity (%) Winds ( mph kmh ) Pressure ( in mb ) Visibility ( mi km ) Precip ( " mm )
12:53 am 00:53 Clear 47 8.3 26 -3.3 44 44 SSE 7 11 30.34 1027 10 16 0.00 0.00
1:53 am 01:53 Clear 46 7.8 27 -2.8 47 47 S 5 7 30.37 1028 10 16 0.00 0.00
2:53 am 02:53 Clear 45 7.2 27 -2.8 49 49 Calm 30.34 1027 10 16 0.00 0.00
3:53 am 03:53 Clear 45 7.2 27 -2.8 49 49 SSE 7 11 30.30 1026 10 16 0.00 0.00
4:53 am 04:53 Mostly Cloudy 42 5.6 30 -1.1 62 62 Calm 30.33 1027 10 16 0.00 0.00
5:53 am 05:53 Cloudy 43 6.1 29 -1.7 57 57 Calm 30.33 1027 10 16 0.00 0.00
6:09 am 06:09 Mostly Cloudy 42 5.6 31 -0.6 64 64 N 3 6 30.36 1028 10 16 0.00 0.00
6:24 am 06:24 Mostly Cloudy 41 5 32 0 70 70 Calm 30.37 1028 10 16 0.00 0.00
6:53 am 06:53 Clear 40 4.4 31 -0.6 70 70 NW 3 6 30.34 1028 10 16 0.00 0.00
7:09 am 07:09 Mostly Cloudy 41 5 32 0 70 70 Calm 30.37 1028 10 16 0.00 0.00
7:33 am 07:33 Partly Cloudy 39 3.9 32 0 76 76 Calm 30.38 1029 10 16 0.00 0.00
7:53 am 07:53 Mostly Cloudy 40 4.4 32 0 73 73 Calm 30.36 1028 10 16 0.00 0.00
8:04 am 08:04 Mostly Cloudy 40 4.4 33 0.6 76 76 Calm 30.39 1029 10 16 0.00 0.00
8:53 am 08:53 Sunny 44 6.7 34 1.1 67 67 Calm 30.37 1028 10 16 0.00 0.00
9:53 am 09:53 Sunny 50 10 32 0 50 50 S 6 9 30.34 1028 10 16 0.00 0.00
10:53 am 10:53 Sunny 54 12.2 35 1.7 49 49 Calm 30.32 1027 10 16 0.00 0.00
11:53 am 11:53 Sunny 58 14.4 36 2.2 44 44 VRB 7 11 30.30 1026 10 16 0.00 0.00
12:53 pm 12:53 Sunny 60 15.6 34 1.1 37 37 SW 8 13 30.25 1025 10 16 0.00 0.00
1:53 pm 13:53 Sunny 61 16.1 32 0 33 33 undefined N/A 30.20 1023 10 16 0.00 0.00
2:53 pm 14:53 Sunny 63 17.2 29 -1.7 27 27 W 8 13 30.18 1022 10 16 0.00 0.00
3:53 pm 15:53 Sunny 63 17.2 29 -1.7 27 27 Calm 30.15 1021 10 16 0.00 0.00
4:53 pm 16:53 Sunny 64 17.8 28 -2.2 25 25 S 10 17 30.14 1021 10 16 0.00 0.00
5:53 pm 17:53 Sunny 63 17.2 29 -1.7 27 27 SSW 7 11 30.13 1020 10 16 0.00 0.00
6:53 pm 18:53 Clear 60 15.6 29 -1.7 30 30 SSW 5 7 30.14 1021 10 16 0.00 0.00
7:53 pm 19:53 Clear 55 12.8 32 0 41 41 Calm 30.14 1021 10 16 0.00 0.00
8:53 pm 20:53 Clear 52 11.1 34 1.1 50 50 Calm 30.13 1020 10 16 0.00 0.00
9:53 pm 21:53 Clear 52 11.1 34 1.1 50 50 Calm 30.14 1021 10 16 0.00 0.00
10:53 pm 22:53 Clear 48 8.9 37 2.8 66 66 Calm 30.14 1021 10 16 0.00 0.00
11:53 pm 23:53 Clear 49 9.4 38 3.3 66 66 WSW 3 6 30.12 1020 10 16 0.00 0.00

Powered by AerisWeather